Location: Beetenbrück
(52.8113°N, 9.5946°E)
Time: 22:03:59
(UTC+00:00)

Cosmos 2285 Rocket - Pass Details

Date: 14 April 2026
Orbit: 971 x 997 km, 74.0° (Epoch: 12 May)

Event Time Altitude Azimuth Distance (km) Brightness Sun altitude
Exits shadow 21:55:14 42° 206° (SSW) 1,366 4.4 -24.8°
Maximum altitude 21:57:34 89° 292° (WNW) 992 3.9 -25.0°
Drops below altitude 10° 22:03:57 10° 26° (NNE) 2,741 6.9 -25.3°
Sets 22:06:29 0° 27° (NNE) 3,689 7.6 -25.5°
